WJA507 CYEG-CYYJ

Flight info

Callsign WJA507
Flight time 1h 21m
Altitude 40000
Route GABET1 GABET DCT ANDIE DCT NADPI DCT MERYT DCT BOOTH APASS8
Aircraft B736/M-SDE2E3FGHIRWXY/LB1

Departure

Time 2026-04-27 03:24
Airport Edmonton International Airport (CYEG)

Arrival

Time 2026-04-27 04:45
Airport Victoria International Airport (CYYJ)
Time Latitude Longitude Altitude Speed Heading
2026-04-27 03:09 53.30544 -113.58345 2383 ft 0 kts 38°
2026-04-27 03:14 53.30540 -113.58351 2374 ft 2 kts 39°
2026-04-27 03:15 53.30525 -113.58371 2383 ft 3 kts 39°
2026-04-27 03:15 53.30509 -113.58393 2387 ft 3 kts 39°
2026-04-27 03:15 53.30493 -113.58414 2391 ft 3 kts 39°
2026-04-27 03:15 53.30479 -113.58433 2387 ft 2 kts 38°
2026-04-27 03:16 53.30464 -113.58444 2387 ft 3 kts 341°
2026-04-27 03:16 53.30449 -113.58426 2383 ft 3 kts 311°
2026-04-27 03:16 53.30436 -113.58402 2383 ft 2 kts 313°
2026-04-27 03:16 53.30433 -113.58396 2383 ft 0 kts 315°
2026-04-27 03:19 53.30433 -113.58397 2383 ft 1 kts 315°
2026-04-27 03:19 53.30456 -113.58434 2383 ft 7 kts 314°
2026-04-27 03:19 53.30492 -113.58498 2383 ft 8 kts 315°
2026-04-27 03:20 53.30544 -113.58585 2383 ft 14 kts 315°
2026-04-27 03:20 53.30599 -113.58723 2383 ft 15 kts 273°
2026-04-27 03:20 53.30638 -113.58862 2383 ft 14 kts 340°
2026-04-27 03:20 53.30733 -113.58874 2383 ft 13 kts 356°
2026-04-27 03:21 53.30824 -113.58886 2383 ft 13 kts 345°
2026-04-27 03:21 53.30848 -113.59013 2383 ft 13 kts 265°
2026-04-27 03:21 53.30840 -113.59158 2383 ft 12 kts 265°
2026-04-27 03:21 53.30813 -113.59287 2385 ft 12 kts 222°
2026-04-27 03:22 53.30746 -113.59365 2383 ft 12 kts 216°
2026-04-27 03:22 53.30681 -113.59443 2384 ft 11 kts 216°
2026-04-27 03:22 53.30615 -113.59511 2386 ft 11 kts 190°
2026-04-27 03:22 53.30567 -113.59471 2384 ft 3 kts 135°
2026-04-27 03:23 53.30543 -113.59430 2385 ft 9 kts 134°
2026-04-27 03:23 53.30442 -113.59260 2386 ft 48 kts 135°
2026-04-27 03:23 53.30011 -113.58541 2381 ft 124 kts 135°
2026-04-27 03:23 53.29290 -113.57347 2664 ft 155 kts 136°
2026-04-27 03:24 53.28497 -113.56048 3546 ft 162 kts 136°
2026-04-27 03:24 53.27672 -113.54700 4356 ft 169 kts 137°
2026-04-27 03:24 53.26785 -113.53226 5017 ft 189 kts 135°
2026-04-27 03:24 53.25833 -113.51594 5667 ft 204 kts 134°
2026-04-27 03:25 53.24973 -113.49693 6459 ft 208 kts 112°
2026-04-27 03:25 53.24749 -113.47253 7114 ft 223 kts 84°
2026-04-27 03:25 53.25243 -113.44733 7838 ft 237 kts 57°
2026-04-27 03:25 53.26420 -113.42827 8890 ft 236 kts 32°
2026-04-27 03:26 53.27843 -113.41353 9820 ft 243 kts 34°
2026-04-27 03:26 53.29281 -113.39843 10713 ft 249 kts 32°
2026-04-27 03:26 53.30910 -113.38471 11047 ft 280 kts 17°
2026-04-27 03:26 53.32952 -113.38289 11307 ft 312 kts 351°
2026-04-27 03:27 53.35009 -113.39684 11930 ft 328 kts 326°
2026-04-27 03:27 53.36608 -113.42368 12860 ft 333 kts 308°
2026-04-27 03:27 53.38034 -113.45455 13850 ft 337 kts 303°
2026-04-27 03:27 53.38892 -113.49126 14679 ft 345 kts 279°
2026-04-27 03:28 53.38726 -113.53148 15544 ft 352 kts 253°
2026-04-27 03:28 53.37590 -113.56801 16407 ft 358 kts 234°
2026-04-27 03:28 53.36070 -113.60164 17218 ft 366 kts 232°
2026-04-27 03:28 53.34464 -113.63528 18024 ft 373 kts 232°
2026-04-27 03:29 53.32814 -113.66945 18818 ft 379 kts 232°
2026-04-27 03:29 53.31157 -113.70391 19628 ft 382 kts 232°
2026-04-27 03:29 53.29488 -113.73888 20424 ft 386 kts 233°
2026-04-27 03:29 53.27808 -113.77433 21184 ft 391 kts 233°
2026-04-27 03:30 53.26114 -113.81022 21924 ft 397 kts 233°
2026-04-27 03:30 53.24396 -113.84669 22687 ft 402 kts 233°
2026-04-27 03:30 53.22659 -113.88355 23435 ft 407 kts 233°
2026-04-27 03:30 53.20897 -113.92091 24101 ft 412 kts 233°
2026-04-27 03:31 53.19139 -113.95815 24710 ft 417 kts 233°
2026-04-27 03:31 53.17331 -113.99638 25354 ft 421 kts 233°
2026-04-27 03:31 53.15509 -114.03484 25983 ft 425 kts 233°
2026-04-27 03:31 53.13660 -114.07381 26592 ft 429 kts 233°
2026-04-27 03:32 53.11801 -114.11293 27184 ft 434 kts 233°
2026-04-27 03:32 53.09914 -114.15259 27757 ft 438 kts 233°
2026-04-27 03:32 53.08010 -114.19253 28313 ft 443 kts 233°
2026-04-27 03:32 53.06086 -114.23283 28861 ft 447 kts 232°
2026-04-27 03:33 53.04138 -114.27357 29399 ft 451 kts 232°
2026-04-27 03:33 53.02173 -114.31463 29922 ft 455 kts 232°
2026-04-27 03:33 53.00188 -114.35602 30394 ft 459 kts 232°
2026-04-27 03:33 52.98232 -114.39744 30780 ft 463 kts 235°
2026-04-27 03:34 52.96361 -114.44120 31182 ft 466 kts 237°
2026-04-27 03:34 52.94535 -114.48591 31570 ft 469 kts 237°
2026-04-27 03:34 52.92718 -114.53116 31945 ft 472 kts 238°
2026-04-27 03:34 52.90890 -114.57673 32303 ft 476 kts 238°
2026-04-27 03:35 52.89048 -114.62241 32669 ft 478 kts 237°
2026-04-27 03:35 52.87192 -114.66804 33137 ft 477 kts 237°
2026-04-27 03:35 52.85355 -114.71291 33670 ft 476 kts 237°
2026-04-27 03:35 52.83497 -114.75806 34135 ft 475 kts 237°
2026-04-27 03:36 52.81632 -114.80322 34490 ft 476 kts 237°
2026-04-27 03:36 52.79766 -114.84830 34855 ft 475 kts 237°
2026-04-27 03:36 52.77896 -114.89337 35249 ft 474 kts 237°
2026-04-27 03:36 52.76037 -114.93813 35640 ft 472 kts 237°
2026-04-27 03:37 52.74175 -114.98287 35997 ft 472 kts 237°
2026-04-27 03:37 52.72313 -115.02755 36339 ft 472 kts 237°
2026-04-27 03:37 52.70456 -115.07206 36697 ft 471 kts 237°
2026-04-27 03:37 52.68598 -115.11649 37051 ft 470 kts 237°
2026-04-27 03:38 52.66739 -115.16086 37382 ft 470 kts 237°
2026-04-27 03:38 52.64904 -115.20460 37703 ft 470 kts 237°
2026-04-27 03:38 52.63045 -115.24886 38038 ft 469 kts 237°
2026-04-27 03:38 52.61185 -115.29305 38367 ft 469 kts 237°
2026-04-27 03:39 52.59323 -115.33718 38710 ft 468 kts 237°
2026-04-27 03:39 52.57467 -115.38111 38982 ft 467 kts 237°
2026-04-27 03:39 52.55613 -115.42492 39225 ft 467 kts 237°
2026-04-27 03:39 52.53753 -115.46881 39470 ft 466 kts 237°
2026-04-27 03:40 52.51897 -115.51252 39715 ft 466 kts 237°
2026-04-27 03:40 52.50065 -115.55557 39932 ft 466 kts 237°
2026-04-27 03:40 52.48207 -115.59919 40145 ft 466 kts 237°
2026-04-27 03:41 52.44462 -115.68689 40154 ft 470 kts 236°
2026-04-27 03:41 52.40708 -115.77445 40147 ft 466 kts 236°
2026-04-27 03:42 52.36989 -115.86087 40151 ft 462 kts 236°
2026-04-27 03:42 52.33288 -115.94663 40157 ft 460 kts 236°
2026-04-27 03:43 52.29595 -116.03194 40155 ft 459 kts 236°
2026-04-27 03:43 52.25897 -116.11705 40154 ft 459 kts 236°
2026-04-27 03:44 52.22216 -116.20152 40158 ft 460 kts 236°
2026-04-27 03:44 52.18492 -116.28669 40155 ft 462 kts 236°
2026-04-27 03:45 52.14750 -116.37196 40139 ft 463 kts 236°
2026-04-27 03:45 52.10986 -116.45745 40144 ft 465 kts 236°
2026-04-27 03:46 52.07229 -116.54252 40125 ft 466 kts 236°
2026-04-27 03:46 52.03436 -116.62810 40114 ft 467 kts 236°
2026-04-27 03:47 51.99633 -116.71364 40109 ft 467 kts 236°
2026-04-27 03:47 51.95820 -116.79909 40106 ft 467 kts 236°
2026-04-27 03:48 51.92001 -116.88441 40087 ft 468 kts 236°
2026-04-27 03:48 51.88179 -116.96953 40089 ft 468 kts 235°
2026-04-27 03:49 51.84344 -117.05465 40061 ft 467 kts 235°
2026-04-27 03:49 51.80513 -117.13940 40056 ft 467 kts 235°
2026-04-27 03:50 51.76680 -117.22395 40046 ft 466 kts 235°
2026-04-27 03:50 51.72849 -117.30819 40034 ft 465 kts 235°
2026-04-27 03:51 51.69039 -117.39164 40033 ft 465 kts 235°
2026-04-27 03:51 51.65200 -117.47541 40021 ft 464 kts 235°
2026-04-27 03:52 51.61366 -117.55889 40017 ft 464 kts 235°
2026-04-27 03:52 51.57521 -117.64235 40012 ft 464 kts 235°
2026-04-27 03:53 51.53674 -117.72561 40007 ft 463 kts 235°
2026-04-27 03:53 51.49820 -117.80873 40006 ft 463 kts 235°
2026-04-27 03:54 51.45966 -117.89160 39990 ft 464 kts 234°
2026-04-27 03:54 51.42129 -117.97382 39996 ft 464 kts 234°
2026-04-27 03:55 51.38257 -118.05655 39970 ft 465 kts 234°
2026-04-27 03:55 51.34367 -118.13940 39956 ft 465 kts 234°
2026-04-27 03:56 51.30470 -118.22212 39946 ft 465 kts 234°
2026-04-27 03:56 51.26572 -118.30460 39942 ft 465 kts 234°
2026-04-27 03:57 51.22688 -118.38652 39944 ft 465 kts 234°
2026-04-27 03:57 51.18779 -118.46871 39942 ft 465 kts 234°
2026-04-27 03:58 51.14867 -118.55071 39940 ft 465 kts 234°
2026-04-27 03:58 51.10946 -118.63265 39939 ft 465 kts 234°
2026-04-27 03:59 51.07016 -118.71449 39936 ft 464 kts 234°
2026-04-27 03:59 51.03118 -118.79542 39928 ft 464 kts 234°
2026-04-27 04:00 50.99195 -118.87662 39933 ft 464 kts 234°
2026-04-27 04:00 50.95262 -118.95778 39920 ft 463 kts 234°
2026-04-27 04:01 50.91328 -119.03870 39923 ft 463 kts 234°
2026-04-27 04:01 50.87385 -119.11954 39923 ft 463 kts 234°
2026-04-27 04:02 50.84101 -119.18669 39916 ft 463 kts 234°
2026-04-27 04:02 50.79509 -119.28031 39912 ft 463 kts 234°
2026-04-27 04:03 50.76200 -119.34755 39908 ft 463 kts 234°
2026-04-27 04:03 50.72269 -119.42720 39911 ft 462 kts 234°
2026-04-27 04:04 50.68313 -119.50712 39912 ft 462 kts 234°
2026-04-27 04:04 50.64348 -119.58697 39914 ft 463 kts 234°
2026-04-27 04:05 50.60368 -119.66688 39906 ft 463 kts 234°
2026-04-27 04:05 50.56390 -119.74651 39908 ft 462 kts 234°
2026-04-27 04:06 50.52410 -119.82594 39917 ft 462 kts 233°
2026-04-27 04:06 50.48441 -119.90491 39912 ft 463 kts 233°
2026-04-27 04:07 50.42449 -120.02368 39908 ft 463 kts 233°
2026-04-27 04:07 50.38444 -120.10277 39907 ft 463 kts 233°
2026-04-27 04:08 50.34436 -120.18166 39909 ft 463 kts 233°
2026-04-27 04:08 50.30443 -120.26004 39902 ft 463 kts 233°
2026-04-27 04:09 50.26415 -120.33887 39899 ft 464 kts 233°
2026-04-27 04:09 50.22378 -120.41762 39899 ft 464 kts 233°
2026-04-27 04:10 50.18340 -120.49616 39894 ft 464 kts 233°
2026-04-27 04:10 50.14301 -120.57450 39901 ft 463 kts 233°
2026-04-27 04:11 50.10276 -120.65233 39888 ft 464 kts 233°
2026-04-27 04:11 50.06221 -120.73051 39896 ft 464 kts 233°
2026-04-27 04:12 50.02160 -120.80858 39883 ft 464 kts 233°
2026-04-27 04:12 49.98094 -120.88655 39890 ft 464 kts 233°
2026-04-27 04:13 49.94054 -120.96476 39877 ft 463 kts 237°
2026-04-27 04:13 49.90703 -121.04970 39879 ft 461 kts 243°
2026-04-27 04:14 49.87496 -121.13578 39869 ft 461 kts 243°
2026-04-27 04:14 49.84246 -121.22194 39475 ft 468 kts 242°
2026-04-27 04:15 49.82609 -121.26489 38915 ft 468 kts 242°
2026-04-27 04:15 49.80946 -121.30825 38217 ft 468 kts 242°
2026-04-27 04:15 49.79277 -121.35159 37438 ft 468 kts 243°
2026-04-27 04:15 49.77614 -121.39471 36791 ft 465 kts 243°
2026-04-27 04:16 49.75956 -121.43761 36187 ft 461 kts 243°
2026-04-27 04:16 49.74311 -121.48014 35476 ft 461 kts 244°
2026-04-27 04:16 49.72662 -121.52276 34751 ft 462 kts 244°
2026-04-27 04:16 49.71018 -121.56517 34207 ft 458 kts 245°
2026-04-27 04:17 49.69381 -121.60730 33632 ft 455 kts 245°
2026-04-27 04:17 49.67775 -121.64861 33028 ft 452 kts 245°
2026-04-27 04:17 49.66163 -121.68998 32499 ft 448 kts 245°
2026-04-27 04:17 49.64562 -121.73100 31944 ft 444 kts 245°
2026-04-27 04:18 49.62978 -121.77156 31469 ft 438 kts 245°
2026-04-27 04:18 49.61409 -121.81167 30949 ft 434 kts 245°
2026-04-27 04:18 49.59850 -121.85146 30461 ft 430 kts 245°
2026-04-27 04:18 49.58308 -121.89079 29963 ft 427 kts 245°
2026-04-27 04:19 49.56778 -121.92975 29421 ft 423 kts 245°
2026-04-27 04:19 49.55260 -121.96836 28880 ft 419 kts 245°
2026-04-27 04:19 49.53757 -122.00653 28364 ft 414 kts 245°
2026-04-27 04:19 49.52268 -122.04422 27878 ft 409 kts 245°
2026-04-27 04:20 49.50797 -122.08131 27397 ft 404 kts 244°
2026-04-27 04:20 49.49336 -122.11801 26931 ft 401 kts 245°
2026-04-27 04:20 49.47882 -122.15451 26439 ft 399 kts 244°
2026-04-27 04:20 49.46435 -122.19083 25966 ft 397 kts 244°
2026-04-27 04:21 49.45011 -122.22652 25503 ft 395 kts 244°
2026-04-27 04:21 49.43577 -122.26243 25034 ft 393 kts 244°
2026-04-27 04:21 49.42150 -122.29810 24583 ft 390 kts 244°
2026-04-27 04:21 49.40726 -122.33359 24093 ft 388 kts 244°
2026-04-27 04:22 49.39318 -122.36877 23636 ft 386 kts 244°
2026-04-27 04:22 49.37912 -122.40398 23086 ft 386 kts 244°
2026-04-27 04:22 49.36512 -122.43904 22592 ft 383 kts 244°
2026-04-27 04:22 49.35123 -122.47381 22133 ft 380 kts 244°
2026-04-27 04:23 49.33746 -122.50819 21684 ft 377 kts 244°
2026-04-27 04:23 49.32382 -122.54225 21241 ft 373 kts 244°
2026-04-27 04:23 49.31048 -122.57553 20815 ft 369 kts 243°
2026-04-27 04:23 49.29705 -122.60896 20391 ft 366 kts 243°
2026-04-27 04:24 49.28375 -122.64200 19967 ft 363 kts 243°
2026-04-27 04:24 49.27049 -122.67488 19596 ft 361 kts 243°
2026-04-27 04:24 49.25728 -122.70756 19257 ft 361 kts 243°
2026-04-27 04:24 49.24403 -122.74028 18968 ft 361 kts 243°
2026-04-27 04:25 49.23078 -122.77301 18659 ft 361 kts 243°
2026-04-27 04:25 49.21757 -122.80570 18420 ft 360 kts 243°
2026-04-27 04:25 49.20441 -122.83837 18195 ft 362 kts 243°
2026-04-27 04:25 49.19139 -122.87080 17926 ft 362 kts 243°
2026-04-27 04:26 49.17828 -122.90355 17656 ft 360 kts 243°
2026-04-27 04:26 49.16525 -122.93617 17380 ft 358 kts 243°
2026-04-27 04:26 49.15236 -122.96859 17112 ft 356 kts 243°
2026-04-27 04:26 49.13953 -123.00091 16840 ft 355 kts 243°
2026-04-27 04:27 49.12677 -123.03310 16578 ft 353 kts 243°
2026-04-27 04:27 49.11411 -123.06520 16314 ft 351 kts 243°
2026-04-27 04:27 49.10155 -123.09714 16059 ft 350 kts 243°
2026-04-27 04:27 49.08907 -123.12892 15800 ft 349 kts 243°
2026-04-27 04:28 49.07680 -123.16026 15547 ft 347 kts 243°
2026-04-27 04:28 49.06446 -123.19187 15294 ft 346 kts 243°
2026-04-27 04:28 49.05223 -123.22334 15045 ft 345 kts 243°
2026-04-27 04:28 49.04004 -123.25476 14788 ft 343 kts 243°
2026-04-27 04:29 49.02790 -123.28614 14552 ft 342 kts 243°
2026-04-27 04:29 49.01585 -123.31740 14301 ft 341 kts 243°
2026-04-27 04:29 49.00390 -123.34859 14051 ft 340 kts 243°
2026-04-27 04:29 48.99203 -123.37967 13814 ft 339 kts 243°
2026-04-27 04:30 48.98022 -123.41069 13557 ft 338 kts 243°
2026-04-27 04:30 48.96864 -123.44120 13286 ft 336 kts 243°
2026-04-27 04:30 48.95699 -123.47201 13054 ft 333 kts 243°
2026-04-27 04:30 48.94558 -123.50222 12994 ft 327 kts 243°
2026-04-27 04:31 48.93452 -123.53225 13004 ft 325 kts 245°
2026-04-27 04:31 48.92286 -123.56199 12991 ft 332 kts 232°
2026-04-27 04:31 48.90505 -123.58448 13000 ft 336 kts 208°
2026-04-27 04:31 48.88288 -123.59492 13004 ft 335 kts 184°
2026-04-27 04:32 48.86002 -123.59186 12944 ft 326 kts 161°
2026-04-27 04:32 48.84034 -123.57688 12739 ft 306 kts 140°
2026-04-27 04:32 48.82602 -123.55489 12612 ft 282 kts 124°
2026-04-27 04:32 48.81459 -123.53192 12501 ft 265 kts 122°
2026-04-27 04:33 48.80395 -123.50982 12275 ft 255 kts 122°
2026-04-27 04:33 48.79356 -123.48824 11862 ft 253 kts 122°
2026-04-27 04:33 48.78313 -123.46675 11432 ft 252 kts 122°
2026-04-27 04:33 48.77287 -123.44583 11070 ft 249 kts 123°
2026-04-27 04:34 48.76252 -123.42484 10661 ft 248 kts 123°
2026-04-27 04:34 48.75218 -123.40400 10271 ft 246 kts 123°
2026-04-27 04:34 48.74193 -123.38337 9896 ft 244 kts 124°
2026-04-27 04:34 48.73173 -123.36288 9509 ft 243 kts 123°
2026-04-27 04:35 48.72389 -123.34063 9060 ft 238 kts 106°
2026-04-27 04:35 48.71916 -123.31679 8646 ft 236 kts 102°
2026-04-27 04:35 48.71491 -123.29281 8251 ft 235 kts 102°
2026-04-27 04:35 48.71065 -123.26900 7853 ft 234 kts 103°
2026-04-27 04:36 48.70631 -123.24528 7458 ft 233 kts 103°
2026-04-27 04:36 48.70190 -123.22169 7073 ft 232 kts 104°
2026-04-27 04:36 48.69745 -123.19827 6693 ft 231 kts 104°
2026-04-27 04:36 48.69297 -123.17489 6329 ft 230 kts 105°
2026-04-27 04:37 48.68850 -123.15170 5944 ft 229 kts 105°
2026-04-27 04:37 48.68403 -123.12854 5554 ft 228 kts 105°
2026-04-27 04:37 48.67964 -123.10581 5176 ft 228 kts 105°
2026-04-27 04:37 48.67517 -123.08285 4787 ft 227 kts 105°
2026-04-27 04:38 48.67072 -123.05995 4409 ft 226 kts 105°
2026-04-27 04:38 48.66632 -123.03723 4132 ft 223 kts 105°
2026-04-27 04:38 48.66075 -123.01551 4084 ft 223 kts 125°
2026-04-27 04:38 48.64884 -123.00101 4094 ft 224 kts 159°
2026-04-27 04:39 48.63350 -122.99876 4107 ft 225 kts 190°
2026-04-27 04:39 48.61801 -123.00398 4056 ft 231 kts 195°
2026-04-27 04:39 48.60367 -123.01441 3952 ft 229 kts 224°
2026-04-27 04:39 48.59538 -123.03417 3856 ft 223 kts 255°
2026-04-27 04:40 48.59210 -123.05690 3706 ft 221 kts 261°
2026-04-27 04:40 48.58940 -123.07972 3549 ft 220 kts 261°
2026-04-27 04:40 48.58869 -123.10232 3362 ft 217 kts 282°
2026-04-27 04:40 48.59253 -123.12424 3211 ft 216 kts 286°
2026-04-27 04:41 48.59647 -123.14605 3057 ft 213 kts 286°
2026-04-27 04:41 48.60037 -123.16713 2990 ft 202 kts 287°
2026-04-27 04:41 48.60406 -123.18685 2997 ft 185 kts 287°
2026-04-27 04:41 48.60747 -123.20497 2869 ft 175 kts 287°
2026-04-27 04:42 48.61079 -123.22257 2634 ft 173 kts 287°
2026-04-27 04:42 48.61408 -123.24005 2414 ft 171 kts 286°
2026-04-27 04:42 48.61730 -123.25719 2198 ft 168 kts 286°
2026-04-27 04:42 48.62048 -123.27400 1987 ft 169 kts 286°
2026-04-27 04:43 48.62374 -123.29132 1749 ft 172 kts 286°
2026-04-27 04:43 48.62693 -123.30816 1499 ft 161 kts 285°
2026-04-27 04:43 48.62987 -123.32374 1306 ft 147 kts 285°
2026-04-27 04:43 48.63252 -123.33775 1096 ft 133 kts 285°
2026-04-27 04:44 48.63500 -123.35083 923 ft 129 kts 284°
2026-04-27 04:44 48.63754 -123.36409 786 ft 133 kts 284°
2026-04-27 04:44 48.64008 -123.37760 600 ft 134 kts 284°
2026-04-27 04:44 48.64260 -123.39107 409 ft 132 kts 284°
2026-04-27 04:45 48.64519 -123.40422 212 ft 130 kts 284°
2026-04-27 04:45 48.64761 -123.41718 61 ft 122 kts 284°
2026-04-27 04:45 48.64955 -123.42752 58 ft 80 kts 286°
2026-04-27 04:45 48.65043 -123.43214 59 ft 18 kts 286°
2026-04-27 04:46 48.65036 -123.43340 60 ft 12 kts 196°
2026-04-27 04:46 48.64956 -123.43294 58 ft 13 kts 153°
2026-04-27 04:46 48.64866 -123.43221 57 ft 15 kts 150°
2026-04-27 04:46 48.64775 -123.43147 57 ft 15 kts 152°
2026-04-27 04:47 48.64687 -123.43078 55 ft 14 kts 152°
2026-04-27 04:47 48.64600 -123.43031 56 ft 13 kts 192°
2026-04-27 04:47 48.64523 -123.43125 59 ft 16 kts 224°
2026-04-27 04:47 48.64436 -123.43249 55 ft 17 kts 224°
2026-04-27 04:48 48.64352 -123.43374 58 ft 17 kts 224°
2026-04-27 04:48 48.64269 -123.43481 60 ft 14 kts 195°
2026-04-27 04:48 48.64214 -123.43389 56 ft 13 kts 100°
2026-04-27 04:48 48.64209 -123.43256 57 ft 13 kts 75°
2026-04-27 04:49 48.64223 -123.43187 56 ft 3 kts 124°
2026-04-27 04:49 48.64199 -123.43181 56 ft 3 kts 173°
2026-04-27 04:49 48.64176 -123.43181 61 ft 3 kts 167°
2026-04-27 04:49 48.64154 -123.43169 56 ft 3 kts 168°
2026-04-27 04:50 48.64131 -123.43170 58 ft 3 kts 187°
2026-04-27 04:50 48.64123 -123.43172 57 ft 0 kts 189°